Torna al catalogo

NAVSTAR 27

USA 84

AttivoNavigazioneMEO
NORAD 22108·PAYLOAD·🇺🇸 United States

Lanciato Sep 9, 1992 da Cape Canaveral Space Force Station

Loading…

Prossimi Passaggi (prossime 24 ore)

TLE

AggiornatoSource: Space-Track

Epoca: Sep 13, 2026, 04:22 UTC

1 22108U 92058A   26256.18253879  .00000010  00000-0  00000-0 0  9992
2 22108  54.6682 163.8829 0017876  47.8028 312.3928  1.87561029244671

Traccia NAVSTAR 27 in tempo reale con AllMySat

Download on the App Store